User: anonymous   Login
Location: Unspecified
(0.0000°N, 0.0000°E)
Time: 10:11:24
(UTC+00:00)
Language:

KORONAS-FOTON - Orbit

View from above orbital plane
View from above orbital plane
View from above satellite
View from above satellite

Ground track
Ground track

The orbit data is extracted from the following two-line orbital elements,

1 33504U 09003A   17116.90786346 +.00000540 +00000-0 +27340-4 0  9995
2 33504 082.4404 283.9317 0017988 288.7299 071.1980 15.14780464453615
Epoch (UTC): 26 April 2017 21:47:19
Eccentricity: 0.0017988
inclination: 82.4404°
perigee height: 509 km
apogee height: 534 km
right ascension of ascending node: 283.9317°
argument of perigee: 288.7299°
revolutions per day: 15.14780464
mean anomaly at epoch: 71.1980°
orbit number at epoch: 45361

The dashed part of the orbit path shows where the satellite is in the earth's shadow,  

DLR